{"data":{"norad_id":68060,"epoch":"2026-09-19T13:09:56.983680Z","epoch_age_seconds":141852,"freshness":"FRESH","line1":"1 68060U 26041W   26262.54857620  .00021748  00000+0  65289-3 0  9992","line2":"2 68060  53.1578 224.1205 0000926  91.4078 268.7031 15.34401642 31149","mean_motion":15.34401642,"eccentricity":9.26e-5,"inclination_deg":53.1578,"raan_deg":224.1205,"arg_perigee_deg":91.4078,"mean_anomaly_deg":268.7031,"bstar":0.00065289,"rev_number":3114,"period_min":93.847657652598,"perigee_km":462.0648984871,"apogee_km":463.33182119574,"semimajor_km":6840.8353598414,"source":"CELESTRAK","updated_at":"2026-09-20T09:00:43.751091Z"}}